"startDT [UTC]","vpos","CH4 [ppm]","stdev(CH4) [ppm]","CO2 [ppm]","stdev(CO2) [ppm]","H2O_reported [%]","stdev(H2O_reported)","CavityPressure [torr]","CavityTemp [C]","OutletValve","CH4_dry [ppm]","CO2_dry [ppm]","DasTemp [C]","EtalonTemp [C]","WarmBoxTemp [C]","MPVPosition","T_ECpre [C]","T_EC1 [C]","T_EC2 [C]","p_inlet [hPa]","p_in [hPa]","p_out [hPa]","T_inlet [C]","RH_inlet [%]","dwpt_inlet [C]","T_vent [C]","RH_vent [%]","dwpt_vent [C]","flow_vent [l min-1]","flow_inlet [l min-1]","dwpt_sample [C]","T_room [C]"
2015-10-12 00:00:00,0.0,1.94126,0.00041,401.943,0.036,0.4357,0.0024,139.999,45.000,31693.94610,1.94969,404.076,35.576,45.069,45.000,0.00,0.09,-272.75,-272.81,-8,521,-943,20.5,13.9,-8.0,20.7,13.9,-7.9,5.73,2.15,-7.4,27.3
2015-10-12 00:01:00,0.0,1.94142,0.00028,401.931,0.033,0.4381,0.0020,139.997,45.000,31693.45792,1.94988,404.076,35.620,45.068,45.000,0.00,0.09,-272.74,-272.80,-8,521,-943,20.5,13.9,-8.0,20.8,13.9,-7.8,5.73,1.84,-7.4,27.4
2015-10-12 00:02:00,0.0,1.94111,0.00035,401.942,0.030,0.4364,0.0020,139.998,45.001,31695.74893,1.94958,404.080,35.630,45.068,45.000,0.00,0.09,-272.74,-272.81,-7,521,-942,20.5,13.9,-8.1,20.8,13.9,-7.8,5.73,1.88,-7.4,27.4
2015-10-12 00:03:00,0.0,1.94115,0.00038,401.919,0.023,0.4379,0.0024,140.000,45.000,31697.17017,1.94961,404.062,35.648,45.068,45.000,0.00,0.09,-272.75,-272.81,-7,521,-943,20.5,13.9,-8.0,20.8,13.9,-7.8,5.73,2.15,-7.4,27.3
2015-10-12 00:04:00,0.0,1.94135,0.00025,401.928,0.027,0.4363,0.0019,140.001,45.000,31697.71119,1.94979,404.064,35.676,45.068,45.000,0.00,0.09,-272.74,-272.80,-8,521,-943,20.5,13.9,-8.0,20.8,13.9,-7.8,5.73,1.81,-7.4,27.3
2015-10-12 00:05:00,0.0,1.94124,0.00041,401.948,0.044,0.4376,0.0023,139.997,45.000,31695.39033,1.94971,404.090,35.685,45.068,45.000,0.00,0.09,-272.75,-272.80,-8,521,-943,20.5,13.9,-8.0,20.8,13.9,-7.8,5.73,1.92,-7.3,27.4
2015-10-12 00:06:00,0.0,1.94123,0.00030,401.914,0.036,0.4351,0.0025,140.001,45.000,31695.78239,1.94963,404.045,35.688,45.068,45.000,0.00,0.09,-272.75,-272.82,-7,521,-943,20.5,13.8,-8.1,20.8,13.8,-7.8,5.73,2.13,-7.4,27.3
2015-10-12 00:07:00,0.0,1.94134,0.00036,401.963,0.035,0.4348,0.0016,139.999,45.000,31694.54315,1.94978,404.090,35.687,45.068,45.000,0.00,0.09,-272.74,-272.81,-8,521,-944,20.5,13.8,-8.1,20.8,13.8,-7.8,5.73,1.79,-7.3,27.3
2015-10-12 00:08:00,0.0,1.94152,0.00034,401.978,0.035,0.4374,0.0027,140.001,45.000,31694.83758,1.94997,404.119,35.687,45.068,45.000,0.00,0.09,-272.74,-272.80,-8,521,-944,20.5,13.8,-8.0,20.8,13.8,-7.8,5.73,1.96,-7.4,27.3
2015-10-12 00:09:00,0.0,1.94144,0.00038,401.950,0.035,0.4370,0.0021,140.002,45.000,31695.60219,1.94989,404.090,35.673,45.068,45.000,0.00,0.09,-272.75,-272.81,-8,521,-943,20.5,13.8,-8.1,20.8,13.9,-7.8,5.73,2.11,-7.3,27.4
2015-10-12 00:10:00,0.0,1.94127,0.00030,401.954,0.047,0.4344,0.0021,140.001,45.000,31697.22007,1.94968,404.080,35.642,45.068,45.000,0.00,0.09,-272.75,-272.81,-7,521,-941,20.5,13.7,-8.1,20.8,13.8,-7.9,5.73,1.77,-7.3,27.3
2015-10-12 00:11:00,0.0,1.94160,0.00034,401.960,0.032,0.4361,0.0023,140.000,45.000,31696.00298,1.95003,404.095,35.639,45.069,45.000,0.00,0.09,-272.75,-272.79,-7,521,-942,20.5,13.8,-8.1,20.8,13.8,-7.8,5.73,2.01,-7.3,27.3
2015-10-12 00:12:00,0.0,1.94144,0.00041,401.959,0.034,0.4393,0.0018,140.000,45.000,31697.30585,1.94994,404.110,35.674,45.069,45.001,0.00,0.09,-272.75,-272.81,-10,524,-944,20.6,13.9,-8.0,20.8,13.9,-7.7,5.73,2.07,-7.3,27.4
2015-10-12 00:13:00,0.0,1.94156,0.00048,401.953,0.045,0.4398,0.0023,140.000,45.000,31698.02573,1.95009,404.105,35.687,45.069,45.000,0.00,0.09,-272.75,-272.81,-7,520,-943,20.5,14.0,-7.9,20.9,14.0,-7.7,5.73,1.75,-7.3,27.4
2015-10-12 00:14:00,0.0,1.94120,0.00040,401.937,0.032,0.4392,0.0027,139.997,45.000,31697.10224,1.94970,404.089,35.691,45.069,45.000,0.00,0.09,-272.75,-272.80,-8,520,-943,20.6,13.9,-8.0,20.9,14.0,-7.7,5.73,2.07,-7.3,27.4
2015-10-12 00:15:00,0.0,1.94160,0.00045,401.931,0.043,0.4393,0.0023,139.997,45.000,31696.48097,1.95010,404.082,35.689,45.068,45.000,0.00,0.09,-272.74,-272.80,-4,524,-942,20.6,13.9,-8.0,20.8,13.9,-7.7,5.73,2.00,-7.3,27.4
2015-10-12 00:16:00,0.0,1.94153,0.00025,401.976,0.037,0.4377,0.0025,140.002,45.000,31695.67719,1.95000,404.119,35.690,45.068,45.000,0.00,0.09,-272.74,-272.81,-9,524,-942,20.6,13.8,-8.0,20.8,13.9,-7.8,5.73,1.77,-7.3,27.4
2015-10-12 00:17:00,0.0,1.94173,0.00048,401.972,0.038,0.4374,0.0030,139.999,45.000,31695.84738,1.95019,404.114,35.688,45.068,45.000,0.00,0.09,-272.75,-272.81,-9,518,-943,20.5,13.8,-8.1,20.8,13.9,-7.8,5.73,2.12,-7.3,27.4
2015-10-12 00:18:00,0.0,1.94190,0.00034,401.977,0.045,0.4354,0.0042,139.998,45.000,31693.78130,1.95032,404.108,35.683,45.068,45.000,0.00,0.09,-272.74,-272.80,-9,517,-943,20.6,13.8,-8.1,20.8,13.9,-7.8,5.73,1.91,-7.3,27.4
2015-10-12 00:19:00,0.0,1.94191,0.00041,402.012,0.035,0.4344,0.0016,140.001,45.000,31693.51140,1.95032,404.140,35.677,45.068,45.000,0.00,0.09,-272.75,-272.80,-6,518,-943,20.6,13.7,-8.1,20.8,13.7,-7.9,5.73,1.83,-7.3,27.4
2015-10-12 00:20:00,0.0,1.94163,0.00039,401.998,0.029,0.4327,0.0024,139.999,45.000,31695.01600,1.95002,404.116,35.684,45.068,45.000,0.00,0.09,-272.75,-272.81,-6,519,-943,20.5,13.7,-8.2,20.8,13.7,-7.9,5.73,2.16,-7.3,27.4
2015-10-12 00:21:00,0.0,1.94176,0.00036,401.998,0.027,0.4326,0.0025,140.001,45.000,31695.83326,1.95011,404.116,35.689,45.068,45.000,0.00,0.09,-272.74,-272.80,-9,517,-942,20.6,13.7,-8.2,20.8,13.7,-7.9,5.73,1.82,-7.3,27.4
2015-10-12 00:22:00,0.0,1.94156,0.00038,401.975,0.036,0.4365,0.0028,139.999,45.000,31695.75994,1.95002,404.114,35.688,45.068,45.000,0.00,0.09,-272.76,-272.80,-8,522,-943,20.6,13.8,-8.1,20.8,13.8,-7.8,5.73,1.92,-7.3,27.4
2015-10-12 00:23:00,0.0,1.94172,0.00030,402.008,0.035,0.4328,0.0032,140.000,45.000,31696.04182,1.95009,404.127,35.688,45.068,45.000,0.00,0.09,-272.75,-272.81,-7,522,-943,20.6,13.7,-8.2,20.9,13.7,-7.9,5.73,2.12,-7.3,27.4
2015-10-12 00:24:00,0.0,1.94153,0.00042,401.988,0.036,0.4336,0.0029,139.996,45.000,31696.10863,1.94992,404.110,35.688,45.068,45.000,0.00,0.09,-272.74,-272.81,-8,521,-943,20.6,13.7,-8.2,20.9,13.7,-7.9,5.73,1.76,-7.3,27.4
2015-10-12 00:25:00,0.0,1.94150,0.00038,402.010,0.038,0.4319,0.0020,139.998,45.000,31696.89480,1.94987,404.124,35.689,45.068,45.000,0.00,0.09,-272.75,-272.80,-8,521,-942,20.5,13.6,-8.2,20.9,13.7,-7.9,5.73,2.03,-7.3,27.4
2015-10-12 00:26:00,0.0,1.94158,0.00041,402.015,0.034,0.4353,0.0034,139.999,45.000,31697.64147,1.95000,404.146,35.690,45.068,45.000,0.00,0.09,-272.75,-272.81,-8,521,-943,20.6,13.7,-8.1,20.9,13.7,-7.9,5.73,2.04,-7.3,27.4
2015-10-12 00:27:00,0.0,1.94158,0.00039,402.021,0.032,0.4335,0.0029,139.999,45.000,31698.99431,1.94997,404.143,35.704,45.068,45.000,0.00,0.09,-272.75,-272.80,-8,521,-943,20.5,13.7,-8.2,20.9,13.7,-7.9,5.73,1.76,-7.3,27.4
2015-10-12 00:28:00,0.0,1.94164,0.00034,402.039,0.032,0.4367,0.0025,140.001,45.000,31699.46110,1.95010,404.178,35.742,45.068,45.000,0.00,0.09,-272.75,-272.80,-8,521,-943,20.5,13.8,-8.1,20.9,13.8,-7.8,5.73,2.11,-7.3,27.4
2015-10-12 00:29:00,0.0,1.94156,0.00036,402.011,0.032,0.4300,0.0027,140.000,45.000,31699.97910,1.94987,404.116,35.749,45.068,45.000,0.00,0.09,-272.75,-272.81,-8,521,-942,20.6,13.6,-8.3,20.9,13.7,-7.9,5.73,1.93,-7.3,27.4
2015-10-12 00:30:00,0.0,1.94192,0.00035,402.023,0.036,0.4318,0.0037,139.998,45.000,31699.96897,1.95026,404.136,35.749,45.068,45.000,0.00,0.09,-272.75,-272.81,-7,521,-943,20.6,13.6,-8.2,20.8,13.7,-7.9,5.73,1.81,-7.3,27.5
2015-10-12 00:31:00,0.0,1.94194,0.00048,402.041,0.034,0.4361,0.0020,139.998,45.000,31697.78218,1.95039,404.177,35.749,45.068,45.000,0.00,0.09,-272.75,-272.81,-9,521,-943,20.6,13.7,-8.1,20.9,13.8,-7.8,5.73,2.14,-7.3,27.5
2015-10-12 00:32:00,0.0,1.94208,0.00033,402.063,0.024,0.4336,0.0023,140.001,45.000,31696.87371,1.95047,404.186,35.750,45.068,45.000,0.00,0.09,-272.74,-272.81,-8,522,-943,20.6,13.7,-8.1,20.9,13.8,-7.8,5.73,1.84,-7.3,27.5
2015-10-12 00:33:00,0.0,1.94172,0.00037,402.047,0.030,0.4360,0.0023,139.997,45.000,31699.81408,1.95018,404.183,35.750,45.068,45.000,0.00,0.09,-272.75,-272.81,-7,521,-942,20.6,13.7,-8.1,20.9,13.8,-7.8,5.73,1.90,-7.3,27.4
2015-10-12 00:34:00,0.0,1.94194,0.00040,402.058,0.032,0.4302,0.0026,140.001,45.000,31700.15273,1.95025,404.165,35.752,45.068,45.000,0.00,0.09,-272.75,-272.81,-9,521,-943,20.6,13.5,-8.3,20.9,13.7,-7.9,5.73,2.13,-7.3,27.5
2015-10-12 00:35:00,0.0,1.94204,0.00032,402.068,0.028,0.4321,0.0030,139.999,45.000,31698.62993,1.95040,404.183,35.756,45.068,45.000,0.00,0.09,-272.74,-272.80,-8,522,-942,20.6,13.6,-8.2,20.9,13.7,-7.9,5.73,1.77,-7.3,27.4
2015-10-12 00:36:00,0.0,1.94190,0.00037,402.045,0.039,0.4337,0.0024,140.000,45.000,31698.77766,1.95031,404.170,35.768,45.068,45.000,0.00,0.09,-272.76,-272.79,-7,521,-942,20.6,13.7,-8.2,20.9,13.7,-7.9,5.73,2.01,-7.3,27.4
2015-10-12 00:37:00,0.0,1.94215,0.00032,402.080,0.023,0.4351,0.0041,140.002,45.000,31700.22024,1.95055,404.209,35.769,45.068,45.000,0.00,0.09,-272.75,-272.81,-8,521,-943,20.6,13.7,-8.1,20.9,13.7,-7.9,5.73,2.05,-7.3,27.4
2015-10-12 00:38:00,0.0,1.94178,0.00034,402.050,0.030,0.4358,0.0020,140.000,45.000,31703.34310,1.95021,404.185,35.776,45.068,45.000,0.00,0.09,-272.74,-272.81,-9,521,-943,20.6,13.7,-8.1,20.9,13.8,-7.8,5.73,1.76,-7.2,27.5
2015-10-12 00:39:00,0.0,1.94184,0.00038,402.047,0.032,0.4327,0.0026,140.000,45.000,31703.36218,1.95024,404.165,35.789,45.068,45.000,0.00,0.09,-272.75,-272.80,-7,521,-943,20.6,13.7,-8.1,20.9,13.7,-7.9,5.73,2.10,-7.3,27.5
2015-10-12 00:40:00,0.0,1.94186,0.00029,402.062,0.029,0.4361,0.0029,139.996,45.000,31701.14020,1.95030,404.198,35.803,45.068,45.000,0.00,0.09,-272.74,-272.81,-7,521,-943,20.6,13.7,-8.1,20.9,13.8,-7.8,5.73,1.95,-7.3,27.4
2015-10-12 00:41:00,0.0,1.94213,0.00020,402.059,0.025,0.4359,0.0039,140.000,45.000,31701.47980,1.95056,404.195,35.792,45.068,45.000,0.00,0.09,-272.74,-272.80,-9,521,-942,20.6,13.7,-8.1,20.9,13.8,-7.8,5.73,1.80,-7.3,27.4
2015-10-12 00:42:00,0.0,1.94183,0.00033,402.059,0.025,0.4328,0.0021,139.998,45.000,31704.20545,1.95023,404.178,35.795,45.068,45.000,0.00,0.09,-272.74,-272.80,-8,522,-942,20.6,13.6,-8.2,20.9,13.7,-7.9,5.73,2.14,-7.3,27.4
2015-10-12 00:43:00,0.0,1.94167,0.00036,402.077,0.039,0.4314,0.0022,140.000,45.000,31701.37480,1.95000,404.191,35.781,45.068,45.000,0.00,0.09,-272.75,-272.81,-7,521,-943,20.6,13.6,-8.2,20.9,13.7,-7.9,5.73,1.86,-7.3,27.4
2015-10-12 00:44:00,0.0,1.94190,0.00039,402.089,0.023,0.4300,0.0029,139.998,45.000,31700.36525,1.95023,404.192,35.767,45.068,45.000,0.00,0.09,-272.75,-272.80,-9,521,-943,20.6,13.5,-8.3,20.9,13.6,-8.0,5.73,1.88,-7.3,27.5
2015-10-12 00:45:00,0.0,1.94220,0.00035,402.070,0.032,0.4357,0.0024,139.999,45.000,31701.64771,1.95061,404.205,35.765,45.068,45.000,0.00,0.09,-272.75,-272.80,-8,522,-943,20.6,13.7,-8.1,20.9,13.7,-7.9,5.73,2.13,-7.2,27.4
2015-10-12 00:46:00,0.0,1.94218,0.00040,402.081,0.034,0.4331,0.0021,139.998,45.000,31702.14291,1.95060,404.203,35.759,45.068,45.000,0.00,0.09,-272.74,-272.81,-7,521,-943,20.6,13.6,-8.2,20.9,13.7,-7.9,5.73,1.77,-7.2,27.5
2015-10-12 00:47:00,0.0,1.94210,0.00040,402.063,0.032,0.4351,0.0014,139.999,45.000,31704.04391,1.95049,404.194,35.760,45.068,45.000,0.00,0.09,-272.75,-272.81,-8,521,-943,20.6,13.7,-8.1,20.9,13.7,-7.9,5.73,2.00,-7.3,27.5
2015-10-12 00:48:00,0.0,1.94218,0.00032,402.050,0.033,0.4341,0.0024,140.002,45.000,31703.45360,1.95061,404.174,35.754,45.068,45.000,0.00,0.09,-272.74,-272.81,-9,521,-943,20.6,13.7,-8.1,20.9,13.7,-7.9,5.73,2.06,-7.2,27.4
2015-10-12 00:49:00,0.0,1.94232,0.00040,402.076,0.036,0.4331,0.0035,139.999,45.000,31700.82531,1.95069,404.196,35.756,45.068,45.000,0.00,0.09,-272.75,-272.81,-7,521,-942,20.6,13.6,-8.2,20.9,13.7,-7.9,5.73,1.76,-7.2,27.4
2015-10-12 00:50:00,0.0,1.94264,0.00034,402.079,0.038,0.4341,0.0026,140.000,45.000,31702.74558,1.95105,404.205,35.750,45.068,45.000,0.00,0.09,-272.76,-272.80,-8,521,-942,20.6,13.7,-8.1,20.9,13.7,-7.9,5.73,2.10,-7.3,27.4
2015-10-12 00:51:00,0.0,1.94257,0.00041,402.078,0.035,0.4378,0.0018,139.997,45.000,31701.24389,1.95106,404.221,35.751,45.068,45.000,0.00,0.09,-272.74,-272.81,-9,522,-943,20.6,13.8,-8.1,20.9,13.8,-7.8,5.73,1.94,-7.2,27.4
2015-10-12 00:52:00,0.0,1.94243,0.00037,402.108,0.033,0.4328,0.0031,139.999,45.000,31700.29587,1.95079,404.230,35.765,45.068,45.000,0.00,0.09,-272.75,-272.80,-8,522,-942,20.6,13.6,-8.2,20.9,13.8,-7.8,5.73,1.80,-7.2,27.4
2015-10-12 00:53:00,0.0,1.94277,0.00035,402.097,0.031,0.4313,0.0022,140.000,45.000,31698.76879,1.95112,404.210,35.759,45.068,45.000,0.00,0.09,-272.75,-272.81,-8,521,-942,20.6,13.6,-8.2,20.9,13.7,-7.9,5.73,2.15,-7.2,27.4
2015-10-12 00:54:00,0.0,1.94274,0.00045,402.096,0.039,0.4342,0.0029,140.001,45.000,31701.07685,1.95113,404.222,35.750,45.068,45.000,0.00,0.09,-272.74,-272.81,-9,522,-942,20.6,13.7,-8.2,20.9,13.7,-7.9,5.73,1.82,-7.2,27.5
2015-10-12 00:55:00,0.0,1.94283,0.00028,402.091,0.041,0.4327,0.0028,139.999,45.000,31701.18614,1.95121,404.211,35.757,45.068,45.000,0.00,0.09,-272.74,-272.79,-8,521,-942,20.6,13.6,-8.2,20.9,13.7,-7.9,5.73,1.92,-7.2,27.4
2015-10-12 00:56:00,0.0,1.94315,0.00034,402.114,0.034,0.4342,0.0018,139.996,45.000,31699.04888,1.95156,404.240,35.755,45.068,45.000,0.00,0.09,-272.75,-272.81,-7,521,-942,20.6,13.6,-8.2,20.9,13.7,-7.9,5.73,2.11,-7.2,27.4
2015-10-12 00:57:00,0.0,1.94319,0.00040,402.117,0.034,0.4348,0.0025,139.998,45.000,31698.50644,1.95161,404.246,35.750,45.068,45.000,0.00,0.09,-272.75,-272.81,-9,521,-943,20.6,13.7,-8.1,20.9,13.7,-7.9,5.73,1.75,-7.2,27.5
2015-10-12 00:58:00,0.0,1.94302,0.00035,402.115,0.031,0.4347,0.0027,140.000,45.000,31700.52171,1.95144,404.243,35.750,45.068,45.000,0.00,0.09,-272.75,-272.80,-8,521,-942,20.6,13.7,-8.2,20.9,13.7,-7.8,5.73,2.04,-7.2,27.5
2015-10-12 00:59:00,0.0,1.94302,0.00033,402.094,0.039,0.4365,0.0020,140.003,45.000,31701.30321,1.95147,404.234,35.750,45.068,45.000,0.00,0.09,-272.75,-272.81,-7,521,-942,20.6,13.7,-8.1,20.9,13.8,-7.8,5.73,2.01,-7.2,27.5
2015-10-12 01:00:00,0.0,1.94314,0.00055,402.122,0.036,0.4340,0.0012,139.997,45.000,31699.86204,1.95153,404.247,35.759,45.068,45.000,0.00,0.09,-272.75,-272.81,-8,521,-943,20.6,13.6,-8.2,20.9,13.7,-7.9,5.73,1.76,-7.2,27.5
2015-10-12 01:01:00,0.0,1.94319,0.00035,402.122,0.036,0.4331,0.0026,140.002,45.000,31700.85675,1.95161,404.243,35.768,45.068,45.000,0.00,0.09,-272.75,-272.80,-8,522,-942,20.6,13.6,-8.2,20.9,13.7,-7.9,5.73,2.14,-7.2,27.5
2015-10-12 01:02:00,0.0,1.94339,0.00040,402.139,0.026,0.4320,0.0024,139.999,45.000,31698.74578,1.95173,404.256,35.768,45.068,45.000,0.00,0.09,-272.74,-272.80,-7,521,-942,20.6,13.6,-8.2,20.9,13.6,-7.9,5.73,1.87,-7.2,27.5
2015-10-12 01:03:00,0.0,1.94337,0.00041,402.154,0.034,0.4326,0.0013,140.000,45.000,31699.65106,1.95177,404.272,35.754,45.068,45.000,0.00,0.09,-272.75,-272.80,-8,521,-942,20.6,13.6,-8.2,20.9,13.7,-7.9,5.73,1.87,-7.2,27.5
2015-10-12 01:04:00,0.0,1.94329,0.00046,402.164,0.036,0.4308,0.0031,139.999,45.000,31700.80064,1.95163,404.272,35.754,45.068,45.000,0.00,0.09,-272.75,-272.81,-9,521,-942,20.6,13.6,-8.3,20.9,13.6,-8.0,5.73,2.13,-7.2,27.5
2015-10-12 01:05:00,0.0,1.94360,0.00043,402.142,0.035,0.4357,0.0022,139.998,45.000,31698.51877,1.95204,404.279,35.754,45.068,45.000,0.00,0.09,-272.74,-272.80,-7,522,-942,20.6,13.7,-8.1,20.9,13.7,-7.9,5.73,1.77,-7.2,27.5
2015-10-12 01:06:00,0.0,1.94352,0.00034,402.148,0.039,0.4327,0.0032,139.998,45.000,31698.01392,1.95189,404.268,35.752,45.068,45.000,0.00,0.09,-272.75,-272.80,-8,521,-942,20.6,13.6,-8.2,20.9,13.7,-7.9,5.73,2.01,-7.2,27.5
2015-10-12 01:07:00,0.0,1.94366,0.00050,402.171,0.047,0.4313,0.0017,139.998,45.000,31698.81580,1.95204,404.282,35.750,45.068,45.000,0.00,0.09,-272.75,-272.81,-9,522,-942,20.6,13.6,-8.2,20.9,13.6,-7.9,5.73,2.04,-7.2,27.5
2015-10-12 01:08:00,0.0,1.94346,0.00036,402.149,0.035,0.4340,0.0024,139.999,45.000,31701.59812,1.95185,404.274,35.749,45.068,45.000,0.00,0.09,-272.74,-272.80,-8,522,-942,20.6,13.7,-8.2,20.9,13.7,-7.9,5.73,1.76,-7.2,27.5
2015-10-12 01:09:00,0.0,1.94370,0.00032,402.161,0.029,0.4301,0.0021,140.000,45.000,31701.32641,1.95204,404.269,35.748,45.068,45.000,0.00,0.09,-272.74,-272.80,-8,521,-943,20.6,13.5,-8.3,20.9,13.6,-8.0,5.73,2.12,-7.2,27.5
2015-10-12 01:10:00,0.0,1.94375,0.00033,402.168,0.029,0.4327,0.0022,139.999,45.000,31699.95299,1.95214,404.288,35.747,45.068,45.000,0.00,0.09,-272.75,-272.81,-9,521,-942,20.6,13.6,-8.2,20.9,13.6,-8.0,5.73,1.90,-7.2,27.5
2015-10-12 01:11:00,0.0,1.94397,0.00040,402.153,0.024,0.4345,0.0024,139.997,45.000,31699.91806,1.95236,404.280,35.747,45.068,45.000,0.00,0.09,-272.75,-272.80,-8,522,-942,20.6,13.6,-8.1,20.9,13.7,-7.9,5.73,1.84,-7.2,27.5
2015-10-12 01:12:00,0.0,1.94407,0.00038,402.173,0.034,0.4331,0.0020,140.000,45.000,31700.54817,1.95244,404.295,35.730,45.068,45.000,0.00,0.09,-272.74,-272.80,-7,521,-942,20.6,13.6,-8.2,20.9,13.7,-7.9,5.73,2.14,-7.2,27.5
2015-10-12 01:13:00,0.0,1.94404,0.00059,402.189,0.032,0.4306,0.0024,139.997,45.000,31699.72686,1.95241,404.298,35.746,45.068,45.000,0.00,0.09,-272.74,-272.81,-9,521,-942,20.6,13.5,-8.3,20.9,13.6,-7.9,5.73,1.79,-7.2,27.5
2015-10-12 01:14:00,0.0,1.94393,0.00040,402.193,0.037,0.4276,0.0025,140.001,45.000,31702.66818,1.95220,404.289,35.750,45.068,45.000,0.00,0.09,-272.75,-272.81,-8,522,-943,20.6,13.4,-8.4,20.9,13.5,-8.0,5.73,1.97,-7.2,27.5
2015-10-12 01:15:00,0.0,1.94438,0.00036,402.194,0.039,0.4300,0.0025,140.001,45.000,31703.05789,1.95270,404.300,35.750,45.068,45.000,0.00,0.09,-272.74,-272.81,-7,522,-943,20.6,13.5,-8.3,20.9,13.5,-8.0,5.73,2.07,-7.2,27.5
2015-10-12 01:16:00,0.0,1.94433,0.00051,402.188,0.030,0.4375,0.0040,140.000,45.000,31703.72180,1.95279,404.328,35.750,45.068,45.000,0.00,0.09,-272.74,-272.80,-8,521,-943,20.6,13.8,-8.0,20.9,13.7,-7.9,5.73,1.75,-7.2,27.5
2015-10-12 01:17:00,0.0,1.94448,0.00041,402.185,0.032,0.4359,0.0039,139.999,45.000,31703.48524,1.95294,404.322,35.750,45.068,45.000,0.00,0.09,-272.76,-272.80,-9,522,-942,20.6,13.7,-8.1,20.9,13.8,-7.8,5.73,2.08,-7.2,27.5
2015-10-12 01:18:00,0.0,1.94429,0.00039,402.179,0.024,0.4303,0.0023,140.001,45.000,31703.48138,1.95263,404.287,35.750,45.068,45.000,0.00,0.09,-272.75,-272.80,-7,522,-942,20.7,13.5,-8.2,20.9,13.6,-7.9,5.73,1.96,-7.2,27.5
2015-10-12 01:19:00,0.0,1.94450,0.00041,402.184,0.045,0.4322,0.0026,140.000,45.000,31704.22288,1.95286,404.300,35.750,45.068,45.000,0.00,0.09,-272.75,-272.80,-8,522,-942,20.6,13.6,-8.2,20.9,13.6,-7.9,5.73,1.80,-7.2,27.5
2015-10-12 01:20:00,0.0,1.94491,0.00034,402.194,0.041,0.4354,0.0041,139.999,45.000,31702.11833,1.95335,404.327,35.750,45.068,45.000,0.00,0.09,-272.75,-272.81,-9,522,-942,20.6,13.6,-8.1,20.9,13.7,-7.9,5.73,2.15,-7.2,27.5
2015-10-12 01:21:00,0.0,1.94486,0.00041,402.206,0.040,0.4319,0.0031,140.000,45.000,31701.92215,1.95324,404.323,35.750,45.068,45.000,0.00,0.09,-272.74,-272.81,-8,522,-942,20.6,13.6,-8.2,20.9,13.7,-7.9,5.73,1.80,-7.2,27.6
2015-10-12 01:22:00,0.0,1.94491,0.00039,402.218,0.028,0.4309,0.0045,139.998,45.000,31704.28809,1.95325,404.327,35.750,45.068,45.000,0.00,0.09,-272.74,-272.80,-8,521,-942,20.6,13.6,-8.2,20.9,13.6,-8.0,5.73,1.96,-7.2,27.6
2015-10-12 01:23:00,0.0,1.94511,0.00033,402.218,0.030,0.4365,0.0026,139.999,45.000,31705.07364,1.95355,404.357,35.747,45.068,45.000,0.00,0.09,-272.74,-272.81,-9,521,-942,20.6,13.7,-8.1,20.9,13.7,-7.8,5.73,2.08,-7.2,27.5
2015-10-12 01:24:00,0.0,1.94552,0.00051,402.237,0.040,0.4392,0.0046,140.000,45.000,31704.09742,1.95404,404.388,35.750,45.068,45.000,0.00,0.09,-272.75,-272.81,-7,522,-942,20.6,13.8,-8.0,20.9,13.8,-7.8,5.73,1.75,-7.2,27.5
2015-10-12 01:25:00,0.0,1.94576,0.00038,402.238,0.036,0.4412,0.0031,140.000,45.000,31704.34760,1.95431,404.400,35.770,45.068,45.000,0.00,0.09,-272.75,-272.80,-7,521,-942,20.6,13.9,-7.9,20.9,13.9,-7.7,5.73,2.09,-7.2,27.5
2015-10-12 01:26:00,0.0,1.94564,0.00031,402.213,0.024,0.4387,0.0023,139.998,45.000,31704.07198,1.95415,404.362,35.800,45.068,45.000,0.00,0.31,-271.05,-271.67,-9,522,-942,20.6,13.8,-8.0,20.9,13.9,-7.7,5.42,2.04,-13.1,27.5
2015-10-12 01:27:00,0.0,1.94588,0.00034,402.235,0.025,0.4412,0.0021,140.000,45.000,31704.70395,1.95444,404.397,35.812,45.068,45.000,0.00,0.09,-272.75,-272.81,-8,522,-942,20.6,13.9,-8.0,20.9,13.9,-7.7,5.73,1.82,-7.2,27.5
2015-10-12 01:28:00,0.0,1.94586,0.00045,402.215,0.032,0.4423,0.0021,139.999,45.000,31705.78948,1.95442,404.382,35.813,45.068,45.000,0.00,0.09,-272.75,-272.81,-7,522,-942,20.6,13.9,-7.9,20.9,13.9,-7.6,5.73,2.15,-7.2,27.5
2015-10-12 01:29:00,0.0,1.94583,0.00030,402.222,0.023,0.4429,0.0025,140.001,45.000,31706.36359,1.95444,404.393,35.813,45.068,45.000,0.00,0.09,-272.74,-272.81,-9,522,-942,20.6,13.9,-7.9,20.9,14.0,-7.6,5.73,1.82,-7.2,27.5
2015-10-12 01:30:00,0.0,1.94604,0.00035,402.258,0.030,0.4388,0.0031,139.999,45.000,31705.14193,1.95454,404.408,35.813,45.068,45.000,0.00,0.09,-272.75,-272.81,-8,522,-943,20.6,13.8,-8.0,20.9,13.9,-7.7,5.73,1.92,-7.2,27.5
2015-10-12 01:31:00,0.0,1.94645,0.00040,402.248,0.030,0.4372,0.0026,140.001,45.000,31707.16499,1.95494,404.391,35.813,45.068,45.000,0.00,0.09,-272.75,-272.81,-7,522,-943,20.7,13.7,-8.0,20.9,13.8,-7.8,5.73,2.11,-7.2,27.5
2015-10-12 01:32:00,0.0,1.94675,0.00049,402.268,0.026,0.4399,0.0019,139.999,45.000,31704.35928,1.95526,404.422,35.813,45.068,45.000,0.00,0.09,-272.74,-272.80,-8,522,-942,20.7,13.8,-8.0,20.9,13.8,-7.7,5.73,1.75,-7.2,27.5
2015-10-12 01:33:00,0.0,1.94708,0.00041,402.283,0.026,0.4401,0.0028,140.001,45.000,31703.26706,1.95563,404.441,35.813,45.068,45.000,0.00,0.09,-272.75,-272.80,-8,522,-943,20.6,13.8,-8.0,20.9,13.9,-7.7,5.73,2.06,-7.2,27.5
2015-10-12 01:34:00,0.0,1.94720,0.00043,402.298,0.030,0.4411,0.0014,140.000,45.000,31703.87310,1.95574,404.461,35.827,45.068,45.000,0.00,0.09,-272.75,-272.81,-7,521,-942,20.6,13.8,-8.0,20.9,13.9,-7.7,5.73,1.99,-7.2,27.5
2015-10-12 01:35:00,0.0,1.94732,0.00032,402.276,0.029,0.4423,0.0020,140.001,45.000,31703.70045,1.95589,404.444,35.853,45.068,45.000,0.00,0.09,-272.74,-272.80,-8,521,-942,20.7,13.9,-7.9,20.9,13.9,-7.7,5.73,1.78,-7.2,27.5
2015-10-12 01:36:00,0.0,1.94767,0.00045,402.292,0.040,0.4394,0.0029,140.000,45.000,31702.69655,1.95619,404.445,35.837,45.068,45.000,0.00,0.09,-272.75,-272.81,-9,522,-943,20.7,13.8,-8.0,21.0,13.9,-7.7,5.73,2.14,-7.2,27.5
2015-10-12 01:37:00,0.0,1.94802,0.00039,402.319,0.028,0.4376,0.0035,139.999,45.000,31702.67274,1.95654,404.464,35.826,45.068,45.000,0.00,0.09,-272.74,-272.82,-7,522,-942,20.6,13.7,-8.1,20.9,13.8,-7.7,5.73,1.86,-7.2,27.5
2015-10-12 01:38:00,0.0,1.94788,0.00036,402.293,0.031,0.4418,0.0018,139.998,45.000,31703.57688,1.95643,404.459,35.814,45.068,45.000,0.00,0.09,-272.74,-272.80,-8,521,-942,20.7,13.8,-7.9,20.9,13.9,-7.7,5.73,1.88,-7.2,27.6
2015-10-12 01:39:00,0.0,1.94813,0.00042,402.299,0.038,0.4380,0.0030,140.001,45.000,31703.84428,1.95664,404.445,35.817,45.069,45.000,0.00,0.09,-272.74,-272.80,-9,522,-943,20.7,13.8,-8.0,21.0,13.8,-7.7,5.73,2.13,-7.2,27.5
2015-10-12 01:40:00,0.0,1.94846,0.00039,402.313,0.038,0.4371,0.0029,139.999,45.000,31703.76505,1.95692,404.453,35.815,45.069,45.000,0.00,0.09,-272.74,-272.81,-8,522,-942,20.7,13.7,-8.1,20.9,13.8,-7.8,5.73,1.77,-7.2,27.5
2015-10-12 01:41:00,0.0,1.94859,0.00029,402.331,0.031,0.4420,0.0023,139.997,45.000,31704.46151,1.95719,404.498,35.821,45.068,45.000,0.00,0.09,-272.75,-272.81,-7,522,-943,20.6,13.9,-7.9,20.9,13.9,-7.7,5.73,2.02,-7.2,27.5
2015-10-12 01:42:00,0.0,1.94902,0.00033,402.326,0.040,0.4414,0.0027,140.002,45.000,31704.34274,1.95758,404.488,35.823,45.068,45.000,0.00,0.09,-272.75,-272.81,-9,522,-942,20.7,13.8,-8.0,21.0,13.9,-7.7,5.73,2.04,-7.2,27.6
2015-10-12 01:43:00,0.0,1.94918,0.00050,402.326,0.035,0.4408,0.0023,140.000,45.000,31703.87258,1.95776,404.488,35.817,45.068,45.000,0.00,0.09,-272.74,-272.80,-8,522,-942,20.7,13.8,-8.0,21.0,13.9,-7.7,5.73,1.76,-7.2,27.5
2015-10-12 01:44:00,0.0,1.94967,0.00033,402.363,0.034,0.4374,0.0022,139.997,45.000,31701.92950,1.95813,404.506,35.815,45.068,45.000,0.00,0.09,-272.75,-272.81,-8,522,-942,20.7,13.7,-8.1,21.0,13.8,-7.7,5.73,2.13,-7.2,27.6
2015-10-12 01:45:00,0.0,1.95018,0.00044,402.366,0.031,0.4384,0.0023,140.000,45.000,31702.64072,1.95869,404.514,35.813,45.068,45.000,0.00,0.09,-272.74,-272.81,-9,522,-943,20.7,13.7,-8.0,21.0,13.8,-7.7,5.73,1.88,-7.2,27.6